EW9023 Weather Reports


Display with metric or nautical units.
time (UTC)temp
F
wind
direction
speed
MPH
gust
MPH
rain 1hr
in
rain 24hr
in
rain mn
in
humidity
%
barometer
mb
20200228000216 80 270 8.0 10.0 0.00 0.00 0.00 18 1014.5
20200227235216 81 292 8.0 11.0 0.00 0.00 0.00 17 1014.5
20200227234216 81 292 6.0 8.0 0.00 0.00 0.00 15 1014.4
20200227233215 81 292 8.0 10.0 0.00 0.00 0.00 14 1014.5
20200227232215 82 315 10.0 12.0 0.00 0.00 0.00 13 1014.5
20200227231216 82 315 9.0 11.0 0.00 0.00 0.00 11 1014.5
20200227230215 82 315 6.0 7.0 0.00 0.00 0.00 11 1014.8
20200227225216 82 292 7.0 8.0 0.00 0.00 0.00 12 1014.9
20200227224216 82 315 8.0 10.0 0.00 0.00 0.00 11 1014.9
20200227223217 82 292 8.0 10.0 0.00 0.00 0.00 11 1015.1
20200227222216 82 315 9.0 10.0 0.00 0.00 0.00 11 1015.4
20200227221218 82 315 8.0 10.0 0.00 0.00 0.00 12 1015.4
20200227220217 81 315 7.0 10.0 0.00 0.00 0.00 12 1015.3
20200227215217 81 337 9.0 11.0 0.00 0.00 0.00 13 1015.4
20200227214217 81 337 9.0 13.0 0.00 0.00 0.00 12 1015.4
20200227213217 81 292 6.0 9.0 0.00 0.00 0.00 13 1015.7
20200227212217 81 270 9.0 11.0 0.00 0.00 0.00 13 1015.8
20200227211217 81 292 8.0 9.0 0.00 0.00 0.00 14 1015.9
20200227210217 81 292 12.0 15.0 0.00 0.00 0.00 14 1016.2
20200227205217 81 292 7.0 9.0 0.00 0.00 0.00 13 1016.2
20200227204217 81 292 10.0 11.0 0.00 0.00 0.00 14 1016.4
20200227203217 81 292 9.0 12.0 0.00 0.00 0.00 14 1016.5
20200227202216 80 315 10.0 12.0 0.00 0.00 0.00 14 1016.5
20200227201217 80 292 8.0 12.0 0.00 0.00 0.00 15 1016.6
20200227200217 79 315 9.0 14.0 0.00 0.00 0.00 14 1016.8
20200227195218 80 292 6.0 10.0 0.00 0.00 0.00 14 1016.9
20200227194218 80 315 9.0 12.0 0.00 0.00 0.00 12 1016.9
20200227193216 79 315 13.0 14.0 0.00 0.00 0.00 13 1017.1
20200227192217 78 337 11.0 13.0 0.00 0.00 0.00 12 1017.0
20200227191217 78 337 13.0 17.0 0.00 0.00 0.00 12 1017.1
20200227190217 77 337 13.0 18.0 0.00 0.00 0.00 12 1017.2
20200227185217 78 0 14.0 17.0 0.00 0.00 0.00 12 1017.6
20200227184218 77 0 15.0 18.0 0.00 0.00 0.00 12 1017.7
20200227183217 78 337 11.0 12.0 0.00 0.00 0.00 13 1017.8
20200227182217 76 0 12.0 14.0 0.00 0.00 0.00 14 1017.9
20200227181217 74 337 11.0 15.0 0.00 0.00 0.00 15 1018.2
20200227180217 73 315 9.0 12.0 0.00 0.00 0.00 17 1018.1
20200227175217 73 337 15.0 17.0 0.00 0.00 0.00 17 1018.0
20200227174217 72 0 12.0 13.0 0.00 0.00 0.00 16 1018.0
20200227173218 71 0 10.0 11.0 0.00 0.00 0.00 18 1018.1
20200227172217 69 292 6.0 8.0 0.00 0.00 0.00 29 1018.3
20200227171217 67 315 5.0 8.0 0.00 0.00 0.00 26 1018.4
20200227170217 65 337 6.0 9.0 0.00 0.00 0.00 27 1018.4
20200227165217 64 315 4.0 5.0 0.00 0.00 0.00 27 1018.4
20200227164228 62 337 3.0 5.0 0.00 0.00 0.00 28 1018.3
20200227163217 61 337 2.0 4.0 0.00 0.00 0.00 31 1018.3
20200227162218 59 0 3.0 5.0 0.00 0.00 0.00 30 1018.3
20200227161217 58 337 7.0 9.0 0.00 0.00 0.00 29 1018.2
20200227160217 57 0 5.0 6.0 0.00 0.00 0.00 31 1018.1
20200227155217 56 0 4.0 5.0 0.00 0.00 0.00 32 1018.1
20200227154216 55 0 6.0 8.0 0.00 0.00 0.00 33 1018.1
20200227153217 54 0 5.0 6.0 0.00 0.00 0.00 36 1018.2
20200227152217 52 337 5.0 6.0 0.00 0.00 0.00 39 1018.2
20200227151217 50 337 5.0 6.0 0.00 0.00 0.00 41 1018.2
20200227150217 48 0 4.0 4.0 0.00 0.00 0.00 43 1018.1
20200227145216 46 0 5.0 6.0 0.00 0.00 0.00 45 1017.8
20200227144218 45 337 4.0 5.0 0.00 0.00 0.00 47 1017.7
20200227143217 43 315 3.0 4.0 0.00 0.00 0.00 49 1017.7
20200227142217 41 315 5.0 5.0 0.00 0.00 0.00 51 1017.5
20200227141217 40 315 4.0 5.0 0.00 0.00 0.00 53 1017.4
20200227140216 40 0 4.0 5.0 0.00 0.00 0.00 54 1017.2
20200227135217 39 0 4.0 5.0 0.00 0.00 0.00 55 1017.1
20200227134216 38 0 2.0 2.0 0.00 0.00 0.00 57 1017.1
20200227133217 38 0 2.0 3.0 0.00 0.00 0.00 58 1017.0
20200227132216 38 0 2.0 2.0 0.00 0.00 0.00 59 1016.9
20200227131217 39 0 2.0 3.0 0.00 0.00 0.00 59 1016.8
20200227130217 40 0 2.0 3.0 0.00 0.00 0.00 59 1016.5
20200227125218 41 0 2.0 2.0 0.00 0.00 0.00 54 1016.5
20200227124216 42 0 3.0 4.0 0.00 0.00 0.00 55 1016.5
20200227123216 42 0 2.0 3.0 0.00 0.00 0.00 57 1016.5
20200227122217 41 0 3.0 4.0 0.00 0.00 0.00 59 1016.4
20200227121217 41 0 2.0 3.0 0.00 0.00 0.00 59 1016.2
20200227120217 42 0 2.0 3.0 0.00 0.00 0.00 62 1016.1
20200227115221 41 0 3.0 3.0 0.00 0.00 0.00 64 1016.1
20200227114217 41 0 2.0 2.0 0.00 0.00 0.00 64 1016.0
20200227113216 41 0 1.0 2.0 0.00 0.00 0.00 65 1016.0
20200227112216 42 0 2.0 2.0 0.00 0.00 0.00 63 1016.0
20200227111217 42 0 3.0 4.0 0.00 0.00 0.00 61 1016.0
20200227110218 44 0 3.0 4.0 0.00 0.00 0.00 63 1016.4
20200227105216 45 0 1.0 1.0 0.00 0.00 0.00 62 1016.5
20200227104216 45 0.0 0.0 0.00 0.00 0.00 63 1016.3
20200227103217 45 0 1.0 1.0 0.00 0.00 0.00 59 1016.2
20200227102217 45 22 4.0 5.0 0.00 0.00 0.00 61 1016.2
20200227101217 44 22 3.0 3.0 0.00 0.00 0.00 60 1016.3
20200227100216 44 22 2.0 3.0 0.00 0.00 0.00 61 1016.4
20200227095216 44 22 2.0 3.0 0.00 0.00 0.00 59 1016.5
20200227094216 45 22 2.0 2.0 0.00 0.00 0.00 59 1016.5
20200227093216 47 22 3.0 4.0 0.00 0.00 0.00 56 1016.5
20200227092216 47 0.0 0.0 0.00 0.00 0.00 61 1016.7
20200227091217 46 0.0 0.0 0.00 0.00 0.00 58 1016.8
20200227090217 47 0.0 0.0 0.00 0.00 0.00 56 1016.8
20200227085216 47 315 2.0 2.0 0.00 0.00 0.00 53 1016.8
20200227084216 48 315 3.0 4.0 0.00 0.00 0.00 53 1016.6
20200227083216 50 0.0 0.0 0.00 0.00 0.00 53 1016.6
20200227082221 50 0.0 0.0 0.00 0.00 0.00 54 1016.7
20200227081216 50 0.0 1.0 0.00 0.00 0.00 54 1016.8
20200227080216 49 315 1.0 1.0 0.00 0.00 0.00 58 1016.8
20200227075217 49 292 2.0 3.0 0.00 0.00 0.00 52 1016.8
20200227074217 50 270 2.0 3.0 0.00 0.00 0.00 51 1016.9
20200227073218 51 0.0 0.0 0.00 0.00 0.00 49 1017.0
20200227072216 52 0.0 0.0 0.00 0.00 0.00 49 1017.1
20200227071221 53 0.0 1.0 0.00 0.00 0.00 50 1017.0
20200227070216 55 270 3.0 3.0 0.00 0.00 0.00 48 1017.1
20200227065217 55 337 2.0 3.0 0.00 0.00 0.00 49 1017.0
20200227064216 55 0.0 0.0 0.00 0.00 0.00 47 1016.9
20200227063217 55 0.0 0.0 0.00 0.00 0.00 49 1016.9
20200227062216 55 0.0 0.0 0.00 0.00 0.00 49 1016.8
20200227061216 56 67 2.0 3.0 0.00 0.00 0.00 46 1016.8
20200227060216 57 292 4.0 6.0 0.00 0.00 0.00 46 1016.8
20200227055217 57 337 1.0 3.0 0.00 0.00 0.00 47 1016.9
20200227054216 56 315 5.0 7.0 0.00 0.00 0.00 49 1016.7
20200227053216 56 0.0 0.0 0.00 0.00 0.00 47 1016.7
20200227052217 57 337 1.0 2.0 0.00 0.00 0.00 47 1016.7
20200227051216 56 0.0 2.0 0.00 0.00 0.00 47 1016.7
20200227050217 56 315 2.0 3.0 0.00 0.00 0.00 47 1016.7
20200227045216 56 337 6.0 8.0 0.00 0.00 0.00 47 1016.5
20200227044217 55 22 4.0 7.0 0.00 0.00 0.00 49 1016.5
20200227043216 56 315 2.0 3.0 0.00 0.00 0.00 46 1016.5
20200227042216 57 292 2.0 3.0 0.00 0.00 0.00 47 1016.4
20200227041218 57 0.0 1.0 0.00 0.00 0.00 44 1016.3
20200227040216 58 0.0 0.0 0.00 0.00 0.00 47 1016.3
20200227035216 58 0.0 2.0 0.00 0.00 0.00 46 1016.2
20200227034218 59 315 4.0 5.0 0.00 0.00 0.00 46 1016.1
20200227033216 60 315 4.0 5.0 0.00 0.00 0.00 45 1016.1
20200227032218 60 292 1.0 2.0 0.00 0.00 0.00 44 1016.1
20200227031222 60 0.0 0.0 0.00 0.00 0.00 43 1016.1
20200227030218 61 292 2.0 3.0 0.00 0.00 0.00 43 1016.0
20200227025234 61 292 4.0 7.0 0.00 0.00 0.00 42 1015.8
20200227024217 61 270 4.0 6.0 0.00 0.00 0.00 41 1015.5
20200227023217 62 270 7.0 9.0 0.00 0.00 0.00 40 1015.6
20200227022225 62 247 7.0 9.0 0.00 0.00 0.00 38 1015.4
20200227021216 63 247 8.0 10.0 0.00 0.00 0.00 37 1015.3
20200227020217 64 270 8.0 10.0 0.00 0.00 0.00 36 1015.3
20200227015217 65 270 9.0 9.0 0.00 0.00 0.00 35 1015.1
20200227014217 66 270 9.0 10.0 0.00 0.00 0.00 34 1015.1
20200227013232 67 270 10.0 13.0 0.00 0.00 0.00 32 1014.9
20200227012217 68 270 10.0 12.0 0.00 0.00 0.00 31 1014.9
20200227011216 70 270 11.0 15.0 0.00 0.00 0.00 29 1014.9
20200227010217 71 270 12.0 16.0 0.00 0.00 0.00 28 1014.8
20200227005216 72 270 14.0 17.0 0.00 0.00 0.00 27 1014.8
20200227004216 73 270 15.0 16.0 0.00 0.00 0.00 25 1014.8
20200227003219 74 270 14.0 18.0 0.00 0.00 0.00 24 1014.7
20200227002216 75 270 12.0 16.0 0.00 0.00 0.00 26 1014.6
20200227001216 76 270 12.0 17.0 0.00 0.00 0.00 23 1014.6